Weather History for Thedford, NE

Change the Weather History Date:

Tuesday, June 18, 2013

  Actual Average (KLBF) Record (KLBF)
Temperature  
Mean Temperature 71 °F 69 °F  
Max Temperature 85 °F 83 °F 106 °F (2012)
Min Temperature 58 °F 55 °F 38 °F (1976)
Degree Days  
Heating Degree Days 0 1  
Month to date heating degree days 43  
Since 1 June heating degree days 43  
Since 1 July heating degree days 6678  
Cooling Degree Days 6 5  
Month to date cooling degree days 60  
Year to date cooling degree days 88  
Since 1 June cooling degree days 60  
Growing Degree Days 21 (Base 50)    
Moisture  
Dew Point 56 °F    
Average Humidity 63    
Maximum Humidity 91    
Minimum Humidity 31    
Precipitation  
Precipitation 0.00 in 0.11 in 2.17 in (1993)
Month to date precipitation 2.18  
Year to date precipitation 9.62  
Snow  
Snow 0.00 in 0.00 in 0.00 in ()
Month to date snowfall 0.0  
Since 1 June snowfall 0.0  
Since 1 July snowfall 28.5  
Snow Depth -    
Sea Level Pressure  
Sea Level Pressure 30.06 in    
Wind  
Wind Speed 3 mph (SE)    
Max Wind Speed 17 mph    
Max Gust Speed 22 mph    
Visibility 10 miles    
Events      
T = Trace of Precipitation, MM = Missing Value Source: NWS Daily Summary

Daily Weather History Graph

Daily Weather History Graph

Search for Another Location

Airport:

Trip Planner

Search our weather history database for the weather conditions in past years. The results will help you decide how hot, cold, wet, or windy it might be!

Date:

Astronomy

Jun. 18, 2013 Rise Set
Actual Time 6:06 AM CDT 9:20 PM CDT
Civil Twilight 5:32 AM CDT 9:55 PM CDT
Nautical Twilight 4:47 AM CDT 10:39 PM CDT
Astronomical Twilight 3:53 AM CDT 11:33 PM CDT
Moon 4:03 PM CDT (6/18) 2:20 AM CDT (6/18)
Length of Visible Light 16h 23m
Length of Day
15h 14m
Waxing Gibbous, 71% of the Moon is Illuminated
Jun 18
Waxing Gibbous
Jun 23
Full
Jun 29
Last Quarter
Jul 8
New
Jul 15
First Quarter

Hourly Weather History & Observations

Time (CDT) Temp. Heat Index Dew Point Humidity Pressure Visibility Wind Dir Wind Speed Gust Speed Precip Events Conditions
12:15 AM 65.5 °F - 58.5 °F 78% 30.12 in 10.0 mi Calm Calm - N/A   Scattered Clouds
12:35 AM 64.8 °F - 59.2 °F 82% 30.11 in 10.0 mi SE 4.6 mph - N/A   Scattered Clouds
12:55 AM 63.5 °F - 58.8 °F 85% 30.10 in 10.0 mi Calm Calm - N/A   Clear
1:15 AM 63.3 °F - 58.6 °F 85% 30.10 in 10.0 mi Calm Calm - N/A   Clear
1:35 AM 63.5 °F - 58.3 °F 83% 30.09 in 10.0 mi Calm Calm - N/A   Clear
1:55 AM 61.9 °F - 58.1 °F 87% 30.09 in 10.0 mi East 3.5 mph - N/A   Clear
2:15 AM 62.8 °F - 57.7 °F 84% 30.10 in 10.0 mi ESE 3.5 mph - N/A   Clear
2:35 AM 62.1 °F - 58.1 °F 87% 30.10 in 10.0 mi Calm Calm - N/A   Clear
2:55 AM 61.9 °F - 57.4 °F 85% 30.11 in 10.0 mi Calm Calm - N/A   Clear
3:15 AM 61.2 °F - 57.4 °F 87% 30.10 in 10.0 mi Calm Calm - N/A   Scattered Clouds
3:35 AM 60.8 °F - 57.2 °F 88% 30.08 in 10.0 mi Calm Calm - N/A   Mostly Cloudy
3:55 AM 62.2 °F - 58.1 °F 86% 30.10 in 10.0 mi South 6.9 mph - N/A   Scattered Clouds
4:15 AM 62.8 °F - 57.2 °F 82% 30.10 in 10.0 mi Calm Calm - N/A   Overcast
4:35 AM 61.9 °F - 56.8 °F 84% 30.09 in 10.0 mi Calm Calm - N/A   Scattered Clouds
4:55 AM 61.0 °F - 57.2 °F 87% 30.07 in 10.0 mi ESE 3.5 mph - N/A   Clear
5:15 AM 60.6 °F - 56.5 °F 86% 30.07 in 10.0 mi Calm Calm - N/A   Clear
5:35 AM 59.0 °F - 55.4 °F 88% 30.07 in 10.0 mi Calm Calm - N/A   Clear
5:55 AM 59.4 °F - 56.1 °F 89% 30.08 in 10.0 mi Calm Calm - N/A   Clear
6:15 AM 59.0 °F - 56.1 °F 90% 30.08 in 10.0 mi Calm Calm - N/A   Clear
6:35 AM 58.3 °F - 55.4 °F 90% 30.09 in 10.0 mi North 3.5 mph - N/A   Clear
6:55 AM 59.0 °F - 56.3 °F 91% 30.09 in 10.0 mi Calm Calm - N/A   Clear
7:15 AM 59.2 °F - 56.3 °F 90% 30.11 in 10.0 mi Calm Calm - N/A   Clear
7:35 AM 59.9 °F - 57.2 °F 91% 30.10 in 10.0 mi Calm Calm - N/A   Clear
7:55 AM 61.2 °F - 57.9 °F 89% 30.11 in 10.0 mi Calm Calm - N/A   Clear
8:15 AM 61.7 °F - 57.6 °F 86% 30.11 in 10.0 mi Calm Calm - N/A   Clear
8:35 AM 63.5 °F - 57.4 °F 80% 30.11 in 10.0 mi Calm Calm - N/A   Clear
8:55 AM 65.7 °F - 57.9 °F 76% 30.11 in 10.0 mi Calm Calm - N/A   Clear
9:15 AM 66.7 °F - 58.1 °F 74% 30.11 in 10.0 mi Calm Calm - N/A   Clear
9:35 AM 68.9 °F - 58.6 °F 70% 30.11 in 10.0 mi ENE 3.5 mph - N/A   Clear
9:55 AM 69.4 °F - 58.6 °F 68% 30.10 in 10.0 mi NE 3.5 mph - N/A   Clear
10:15 AM 71.1 °F - 59.4 °F 66% 30.10 in 10.0 mi Calm Calm - N/A   Clear
10:35 AM 72.7 °F - 59.0 °F 62% 30.10 in 10.0 mi Calm Calm - N/A   Clear
10:55 AM 73.9 °F - 59.9 °F 61% 30.09 in 10.0 mi ENE 3.5 mph - N/A   Clear
11:15 AM 75.6 °F - 59.4 °F 57% 30.09 in 10.0 mi Calm Calm - N/A   Clear
11:35 AM 76.3 °F - 57.7 °F 53% 30.08 in 10.0 mi Calm Calm - N/A   Clear
11:55 AM 78.4 °F - 56.8 °F 47% 30.08 in 10.0 mi SSE 5.8 mph - N/A   Clear
12:15 PM 78.3 °F - 55.8 °F 46% 30.08 in 10.0 mi SSE 3.5 mph - N/A   Scattered Clouds
12:35 PM 78.8 °F - 55.4 °F 44% 30.07 in 10.0 mi SSW 5.8 mph - N/A   Clear
12:55 PM 78.8 °F - 53.2 °F 41% 30.07 in 10.0 mi Calm Calm - N/A   Clear
1:15 PM 79.5 °F - 54.0 °F 41% 30.07 in 10.0 mi Calm Calm - N/A   Clear
1:35 PM 79.9 °F - 53.8 °F 40% 30.06 in 10.0 mi Calm Calm - N/A   Scattered Clouds
1:55 PM 81.5 °F - 52.2 °F 36% 30.05 in 10.0 mi ESE 4.6 mph - N/A   Scattered Clouds
2:15 PM 82.2 °F 81.3 °F 53.6 °F 37% 30.05 in 10.0 mi Calm Calm - N/A   Clear
2:35 PM 81.9 °F - 51.8 °F 35% 30.04 in 10.0 mi SW 3.5 mph - N/A   Clear
2:55 PM 83.1 °F - 52.7 °F 35% 30.04 in 10.0 mi SSE 4.6 mph - N/A   Clear
3:15 PM 83.3 °F - 51.8 °F 34% 30.03 in 10.0 mi South 4.6 mph - N/A   Scattered Clouds
3:35 PM 84.0 °F - 52.7 °F 34% 30.03 in 10.0 mi SE 5.8 mph - N/A   Mostly Cloudy
3:55 PM 81.3 °F 80.7 °F 53.8 °F 38% 30.02 in 10.0 mi SE 8.1 mph - N/A   Mostly Cloudy
4:15 PM 83.3 °F 82.0 °F 53.2 °F 35% 30.01 in 10.0 mi SSE 8.1 mph - N/A   Clear
4:35 PM 84.0 °F - 51.8 °F 33% 30.01 in 10.0 mi SE 5.8 mph 16.1 mph N/A   Clear
4:55 PM 84.7 °F - 51.8 °F 32% 30.00 in 10.0 mi SSE 8.1 mph - N/A   Scattered Clouds
5:15 PM 84.2 °F - 51.4 °F 32% 30.00 in 10.0 mi SSE 15.0 mph - N/A   Scattered Clouds
5:35 PM 84.6 °F - 50.5 °F 31% 29.99 in 10.0 mi SSE 10.4 mph - N/A   Scattered Clouds
5:55 PM 83.8 °F - 52.2 °F 33% 29.99 in 10.0 mi SSE 12.7 mph - N/A   Scattered Clouds
6:15 PM 83.7 °F - 52.7 °F 34% 29.99 in 10.0 mi SSE 10.4 mph - N/A   Scattered Clouds
6:35 PM 82.8 °F 82.1 °F 56.1 °F 40% 29.98 in 10.0 mi SE 17.3 mph 20.7 mph N/A   Mostly Cloudy
6:55 PM 80.6 °F 80.6 °F 56.1 °F 43% 29.98 in 10.0 mi SE 12.7 mph - N/A   Mostly Cloudy
7:15 PM 79.3 °F - 56.1 °F 45% 29.98 in 10.0 mi SE 15.0 mph 21.9 mph N/A   Mostly Cloudy
7:35 PM 80.8 °F 80.7 °F 55.8 °F 42% 29.98 in 10.0 mi SE 15.0 mph 18.4 mph N/A   Scattered Clouds
7:55 PM 78.1 °F - 55.6 °F 46% 29.98 in 10.0 mi SE 13.8 mph - N/A   Clear
8:15 PM 77.2 °F - 55.8 °F 47% 29.98 in 10.0 mi SE 12.7 mph 16.1 mph N/A   Clear
8:35 PM 76.3 °F - 56.1 °F 50% 29.99 in 10.0 mi SE 10.4 mph - N/A   Clear
8:55 PM 75.2 °F - 56.3 °F 52% 29.99 in 10.0 mi SE 8.1 mph - N/A   Clear
9:15 PM 74.1 °F - 56.3 °F 54% 29.99 in 10.0 mi SE 9.2 mph - N/A   Clear
9:35 PM 72.1 °F - 56.8 °F 58% 30.00 in 10.0 mi ESE 8.1 mph - N/A   Clear
9:55 PM 70.0 °F - 57.6 °F 65% 30.01 in 10.0 mi ESE 6.9 mph - N/A   Clear
10:15 PM 70.2 °F - 57.9 °F 65% 30.01 in 10.0 mi SE 8.1 mph - N/A   Clear
10:35 PM 68.9 °F - 58.1 °F 68% 30.01 in 10.0 mi ESE 6.9 mph - N/A   Clear
10:55 PM 68.7 °F - 57.7 °F 68% 30.01 in 10.0 mi ESE 6.9 mph - N/A   Clear
11:15 PM 69.1 °F - 57.4 °F 66% 30.02 in 10.0 mi SE 8.1 mph - N/A   Clear
11:35 PM 69.8 °F - 57.4 °F 65% 30.01 in 10.0 mi SE 12.7 mph - N/A   Clear
11:55 PM 69.1 °F - 57.9 °F 68% 30.00 in 10.0 mi SE 10.4 mph 16.1 mph N/A   Clear